Theta_e
358 358 359 358 358 355 353 351 355 358 359 355 359 359 357 354 355 353 356 359 354 349 352 348 356 350 349 347 346 352 352 353 355 352 352 359 360 360 361 361 358 359 361 360 360 361 361 360 359 358 359 359 360 361 361 362 362 363 363 364 365 365 366 366 366 367 366 367 367 367 367 368 368 368 368 367 367 367 366 365 364 364 363 362 362
361 360 359 358 355 354 355 356 356 358 358 359 358 356 355 354 355 358 355 358 355 351 355 352 346 347 350 350 348 344 352 349 353 349 353 359 363 359 364 361 359 359 359 361 361 362 362 362 362 361 361 362 362 362 362 363 364 364 365 366 367 367 367 368 368 368 368 368 368 369 368 368 368 368 368 368 368 367 368 367 366 366 365 364 363
359 360 359 355 356 356 354 358 357 359 360 359 362 361 359 358 356 357 360 360 357 353 355 352 353 348 350 345 345 351 348 352 346 345 346 353 359 355 361 363 362 360 359 361 361 362 363 363 363 363 364 364 364 365 366 366 366 366 366 366 367 368 368 368 368 369 368 369 370 370 370 369 369 369 369 369 368 368 367 367 367 367 366 365 364
361 358 357 354 354 356 356 358 357 357 360 357 360 361 362 357 358 359 360 362 360 355 359 351 351 345 351 345 349 347 348 350 345 344 346 351 357 363 357 359 362 362 360 361 362 362 362 363 363 363 363 364 365 366 366 366 366 367 368 368 369 369 369 369 368 368 368 368 368 368 369 370 370 369 370 369 369 368 368 367 367 367 366 365 364
360 359 356 352 354 356 357 359 359 361 361 360 361 361 359 355 358 361 360 363 356 354 351 348 347 352 350 348 345 344 345 346 347 343 343 347 351 352 363 357 357 363 361 362 363 364 364 364 365 365 366 366 366 367 368 369 369 369 369 368 367 363 362 362 362 364 366 367 368 367 368 370 371 371 370 370 370 369 368 368 368 368 367 366 365
362 358 356 355 357 359 358 359 360 363 362 360 357 358 356 357 355 358 355 359 353 355 349 349 347 348 350 347 352 352 352 346 343 343 347 346 350 356 351 360 364 358 359 362 364 364 365 365 366 366 367 367 368 368 368 369 370 368 367 362 359 360 362 362 363 363 364 366 368 368 369 369 370 372 372 371 371 370 369 368 369 368 368 368 367
363 359 356 359 357 356 357 357 362 362 358 359 359 360 358 358 357 357 357 354 351 350 352 351 342 342 353 355 347 351 352 346 345 344 347 353 354 351 355 351 357 367 363 359 363 366 365 364 365 365 365 366 366 367 368 367 368 366 360 363 362 360 359 361 361 362 363 365 368 371 370 369 371 372 372 371 371 370 370 369 369 369 369 368 367
364 363 356 356 353 356 357 363 361 363 361 360 364 359 359 359 360 359 356 353 354 345 352 351 349 344 347 349 348 351 350 348 348 345 345 351 350 350 351 350 355 353 355 357 362 361 367 365 365 364 366 366 367 368 367 366 367 365 363 362 361 361 362 361 363 362 362 364 367 371 373 372 371 372 372 372 371 369 369 369 368 368 368 368 368
366 367 360 358 358 357 355 361 363 365 359 360 359 359 357 349 361 361 362 360 352 346 343 351 346 344 348 347 346 355 347 356 350 347 345 351 346 343 346 346 358 348 354 348 355 365 367 366 367 367 367 367 368 368 367 369 369 368 363 361 360 361 364 364 365 364 364 366 369 372 372 372 372 372 372 372 372 370 369 368 368 368 368 368 368
365 367 370 359 359 362 360 363 365 364 365 360 360 357 359 358 359 361 361 360 355 350 347 348 343 341 348 344 347 344 343 349 353 350 350 349 349 349 346 342 347 347 343 349 346 350 357 364 366 367 370 371 371 369 370 370 371 370 370 364 359 362 363 363 363 364 366 367 371 372 373 373 373 372 372 372 373 370 369 369 368 369 369 369 369
365 368 367 359 356 359 363 365 366 365 363 360 357 362 364 362 362 360 361 358 356 354 351 350 343 342 341 344 342 350 355 347 354 352 345 341 343 349 345 349 347 347 353 347 346 350 352 359 364 367 370 368 369 370 371 372 371 370 371 371 368 358 362 362 362 363 365 372 374 374 375 375 375 374 373 373 373 370 369 369 369 370 370 369 369
364 366 368 362 359 359 363 361 365 364 362 359 357 358 359 360 359 356 359 357 358 355 351 349 346 345 346 345 347 347 350 349 349 347 350 348 350 347 345 341 349 346 344 345 349 345 351 355 364 355 355 360 368 371 376 374 374 375 373 371 371 372 370 368 366 368 373 373 374 375 375 374 374 373 373 373 371 370 370 370 370 370 370 369 368
365 365 365 364 364 363 363 365 365 365 363 361 361 363 362 362 358 364 357 355 353 351 345 348 346 341 344 342 347 349 346 348 347 347 344 345 344 341 345 346 346 348 349 346 347 345 345 358 360 360 359 363 378 372 371 371 372 371 372 373 371 371 371 371 372 374 375 375 375 375 374 373 373 373 372 371 371 370 370 369 369 369 370 369 368
364 368 368 364 364 361 363 368 365 365 367 366 367 363 363 362 358 359 357 350 352 349 347 350 342 337 336 336 338 341 349 344 339 342 346 346 346 346 351 342 343 344 347 352 352 344 344 356 368 358 363 365 365 363 368 366 371 369 375 372 371 371 370 370 372 373 374 374 374 373 373 372 372 373 373 372 371 371 370 369 368 368 369 368 368
365 365 364 366 364 365 363 364 365 366 364 364 363 361 360 357 359 356 359 354 350 351 351 352 348 338 339 337 331 332 335 339 342 345 341 345 344 343 345 342 341 347 351 349 350 355 346 353 356 360 369 370 364 363 363 366 364 373 371 370 369 368 369 371 372 374 375 374 374 372 372 372 372 371 371 371 371 371 370 369 368 368 367 367 367
364 361 364 366 368 365 363 363 367 369 365 364 363 359 360 357 359 361 360 354 348 349 350 350 348 343 336 334 334 330 329 335 341 341 340 340 340 340 342 340 342 344 355 347 345 351 352 352 352 359 371 368 371 365 364 363 369 371 376 374 366 368 369 371 373 374 374 373 373 372 371 371 370 370 369 368 368 369 370 370 369 368 368 367 367
363 363 363 369 368 367 367 366 366 364 364 363 359 359 357 362 360 360 357 357 352 351 351 350 350 352 348 339 334 328 332 335 334 339 339 338 339 339 341 338 338 344 344 345 348 350 348 347 360 359 367 372 372 370 367 367 368 371 371 374 369 368 371 371 372 373 373 372 372 371 370 369 370 368 368 367 367 368 368 368 368 368 368 368 367
363 363 362 364 364 369 368 368 366 362 361 362 361 360 355 364 359 360 362 359 360 357 350 349 348 353 348 344 348 341 338 340 335 343 348 340 338 342 343 347 344 342 348 343 345 346 351 349 353 356 360 365 363 366 362 364 369 367 371 379 366 370 372 372 371 371 371 371 372 369 369 368 368 368 367 367 367 367 367 367 367 367 367 367 367
362 365 365 367 369 369 372 367 366 366 362 363 360 358 355 359 363 363 363 362 362 362 356 352 350 349 348 347 347 345 346 341 341 339 339 345 347 341 340 343 344 345 349 345 346 352 348 354 345 347 359 365 365 363 367 364 364 370 370 366 370 371 370 369 370 369 370 369 371 369 369 369 367 367 366 366 367 367 367 367 367 367 367 367 367
362 365 369 369 367 370 368 367 366 365 363 361 360 359 361 365 364 367 366 366 362 356 354 355 350 350 349 348 349 347 346 342 343 339 340 340 342 344 342 346 347 355 348 346 355 349 346 354 353 352 354 363 365 365 365 363 364 364 365 363 373 370 371 369 367 367 370 368 370 368 369 369 367 367 367 367 367 367 367 366 367 367 367 367 366
363 364 364 367 367 367 372 369 366 365 363 361 361 361 362 366 366 364 364 362 361 362 359 356 353 352 353 355 351 347 347 346 345 346 340 342 339 338 344 349 346 348 349 347 354 347 347 354 356 355 366 368 369 365 364 367 365 368 368 367 371 370 368 368 367 368 368 366 366 368 368 367 367 367 366 366 366 366 366 366 366 366 366 366 365
358 363 367 364 367 369 365 364 364 362 361 362 363 365 365 365 366 363 369 366 367 361 359 360 357 356 353 355 354 349 348 345 346 344 345 350 341 339 346 347 351 350 351 358 350 352 349 353 353 359 366 363 365 366 366 368 371 360 365 364 368 368 365 367 367 366 365 364 366 367 367 366 366 366 366 365 366 366 366 365 366 366 366 366 366
352 356 359 361 363 366 363 362 363 364 362 364 363 360 361 359 361 365 364 364 363 365 362 359 353 355 351 350 350 344 344 345 346 342 341 343 344 345 339 346 343 343 351 349 352 351 351 356 350 356 365 360 365 366 367 366 367 368 362 361 363 366 365 365 366 364 364 365 365 364 365 365 365 365 365 365 364 365 365 365 365 367 367 365 365
355 351 353 355 359 360 363 363 364 365 365 364 363 362 361 361 362 365 365 365 364 364 361 360 359 359 355 348 347 347 346 346 346 346 345 347 347 343 342 344 341 344 345 351 353 352 350 352 354 359 361 360 365 369 365 367 370 363 368 365 362 366 362 366 364 362 363 364 362 363 364 364 364 364 363 364 364 364 364 364 365 366 366 365 365
350 350 351 354 357 359 360 360 363 366 368 369 367 366 367 364 364 363 363 367 364 365 362 362 359 356 355 355 351 350 348 348 347 345 346 345 345 342 344 344 342 342 343 344 346 351 350 354 357 361 355 360 358 366 364 364 366 367 367 364 362 362 362 363 362 361 363 361 362 361 362 362 362 363 363 364 364 363 363 363 364 364 364 364 363
350 351 350 352 353 356 359 361 365 366 368 370 368 368 369 363 364 366 363 365 367 367 364 359 359 356 355 352 351 350 350 350 351 349 347 345 345 342 345 345 346 342 345 346 351 346 353 357 356 358 358 362 363 364 366 359 365 367 358 365 360 359 359 361 361 362 362 361 362 361 362 362 362 363 364 365 364 363 362 362 363 363 363 361 360
349 354 355 354 353 355 356 358 360 364 366 368 363 366 367 367 365 370 367 364 368 365 362 360 355 356 359 358 354 352 350 350 349 348 349 348 347 348 350 344 341 342 340 343 346 345 349 353 350 352 358 367 367 365 366 360 361 362 369 367 364 355 357 355 359 359 360 360 360 361 361 361 362 362 363 364 363 362 361 362 363 362 360 358 358
353 355 354 355 354 353 356 357 361 360 363 366 367 365 367 364 364 364 364 359 361 365 363 358 355 355 355 359 356 352 352 349 349 350 352 352 352 351 350 347 343 344 345 341 341 346 346 346 351 357 358 363 365 365 364 360 359 361 362 364 366 363 355 356 356 357 357 357 358 359 359 360 361 361 362 362 362 362 361 361 362 362 359 358 356
351 354 356 359 359 356 356 354 358 360 362 364 363 365 368 368 364 367 364 364 364 364 364 361 362 359 358 358 358 358 357 357 353 351 352 355 352 352 349 344 348 349 344 341 344 345 348 349 345 365 363 366 369 361 363 367 362 351 353 359 355 367 354 351 354 355 354 353 354 355 358 359 359 359 359 359 360 360 360 359 360 360 359 357 355
352 352 355 356 360 360 358 357 357 359 359 359 362 363 365 363 363 367 367 368 366 366 364 362 361 360 359 358 358 357 360 357 354 353 356 359 354 356 357 354 355 354 354 348 346 351 346 351 349 357 364 366 359 365 361 360 357 356 352 356 353 363 351 351 354 352 353 353 352 353 356 357 356 356 356 356 357 357 356 356 356 356 356 355 354
353 355 357 354 357 358 360 358 359 359 360 359 361 364 365 363 362 360 365 367 365 364 365 363 359 358 358 356 359 357 361 358 357 353 353 353 353 357 358 356 355 357 358 357 348 353 352 348 349 352 360 362 358 359 354 355 354 355 353 354 356 359 352 358 352 352 351 350 350 351 352 353 352 352 353 353 354 354 354 353 352 353 352 351 351
350 353 354 354 356 356 356 355 354 354 356 357 358 361 364 363 361 357 360 367 366 365 363 360 358 358 361 360 361 360 359 359 357 355 354 356 355 352 355 356 359 360 360 359 352 350 357 355 356 355 356 358 361 360 361 354 353 354 357 351 359 354 366 362 352 353 352 350 349 349 348 350 348 349 351 351 351 351 352 351 348 347 347 347 346
352 352 354 356 356 355 355 357 353 356 358 357 357 359 363 362 362 362 362 365 366 365 367 364 361 358 360 359 362 362 362 359 357 356 353 352 354 355 358 357 354 357 358 360 357 354 358 362 357 355 356 358 356 360 357 355 351 353 352 353 357 352 350 353 365 350 350 349 348 347 347 347 346 347 349 349 349 348 348 345 342 341 342 341 341
356 353 356 356 355 354 354 354 357 354 357 360 356 360 362 362 363 359 358 362 366 364 363 363 364 360 360 361 360 361 362 360 357 354 353 352 351 350 352 352 351 361 360 358 354 356 353 358 355 358 356 358 353 360 359 356 354 357 351 351 349 348 351 356 365 359 348 351 348 347 347 345 344 345 346 346 346 345 344 340 337 335 337 336 335
360 359 357 358 358 356 355 355 357 355 359 356 358 360 360 362 363 361 358 360 361 360 360 362 361 361 359 360 358 360 357 355 356 355 356 355 355 353 351 352 353 355 358 361 356 355 354 355 359 355 356 357 354 357 359 355 361 355 355 353 348 347 348 349 350 361 347 350 349 348 347 345 344 344 343 342 343 340 339 336 332 331 331 331 330
356 360 360 359 359 360 356 357 356 357 357 357 357 360 360 359 360 364 363 362 361 360 359 359 361 363 361 361 360 359 360 358 358 357 358 359 358 358 357 358 358 355 358 360 360 358 359 355 358 352 356 355 356 359 356 357 353 353 352 354 352 351 350 351 352 353 352 348 350 349 348 345 344 342 340 339 337 334 332 331 330 329 328 328 328
357 357 359 361 360 360 356 357 357 358 358 357 359 358 359 360 360 361 363 363 363 361 360 360 363 362 362 360 360 361 361 358 357 356 356 358 359 358 357 358 357 356 357 358 359 359 361 354 358 361 362 359 359 356 358 354 355 353 356 359 356 356 357 357 354 353 351 346 349 347 345 346 344 341 340 337 334 332 331 331 329 327 326 324 324
357 355 356 358 358 360 360 359 359 359 360 360 360 360 358 358 360 362 362 362 362 363 363 362 362 363 362 361 359 361 359 358 358 359 361 359 358 358 358 358 358 358 358 359 363 362 358 361 358 354 357 355 359 361 359 358 355 356 353 353 358 360 363 360 357 356 354 358 361 356 345 344 341 338 340 336 333 331 330 330 330 328 326 323 322
355 354 354 357 359 359 361 361 356 360 360 360 362 361 361 361 359 360 359 360 360 360 361 360 361 362 361 360 361 361 361 360 359 359 358 358 357 357 359 358 359 360 358 357 358 355 354 352 351 358 355 357 360 359 365 359 358 355 354 357 357 357 361 361 362 362 361 357 354 349 353 353 347 345 334 334 333 331 330 330 330 329 327 324 323
353 353 352 353 355 361 358 360 361 358 359 361 362 363 362 361 359 358 358 359 358 358 358 358 359 359 359 358 358 358 358 361 361 360 360 356 359 357 355 363 361 362 359 358 361 358 355 356 356 357 358 360 364 363 363 361 358 359 357 355 352 355 359 366 366 360 364 363 362 359 348 345 342 339 334 335 334 333 332 333 332 332 328 325 324
356 357 354 351 354 355 358 360 360 361 356 357 360 362 362 362 361 359 359 358 358 357 357 355 355 356 359 356 356 361 359 360 361 364 362 366 366 363 364 366 368 364 362 363 359 361 360 355 356 357 357 355 357 361 361 358 355 353 353 351 347 350 355 357 363 363 362 360 360 358 360 360 356 357 355 348 345 339 336 334 335 333 328 325 324
363 359 357 357 354 352 354 357 358 358 358 355 362 361 363 364 363 359 359 359 360 358 359 358 358 357 357 356 356 363 365 364 364 364 371 368 369 363 358 360 369 367 362 362 361 360 359 356 355 353 350 353 356 361 359 357 357 355 353 353 349 348 352 357 362 361 363 359 356 358 359 359 359 359 360 350 341 339 337 336 330 329 326 325 325
362 361 360 356 355 353 351 355 355 356 358 361 360 347 349 357 364 363 362 362 362 362 361 363 361 360 358 355 356 358 359 362 365 366 367 367 366 366 364 367 368 366 362 361 360 360 357 355 353 352 350 351 355 358 361 360 355 352 351 354 352 351 353 353 351 360 364 364 362 358 360 363 360 357 352 343 339 336 333 330 327 326 325 325 324
362 359 359 358 360 358 354 355 354 356 357 353 338 338 342 343 358 362 360 360 359 358 359 359 359 360 358 354 355 356 357 361 359 356 356 357 362 364 367 370 368 369 367 366 364 361 361 358 357 356 356 354 354 358 361 361 358 358 355 355 356 352 352 356 357 351 363 364 358 356 355 359 359 355 350 341 335 332 331 328 326 324 324 324 323
360 363 362 360 360 358 355 354 353 356 354 339 336 339 341 339 337 349 358 358 357 358 358 359 360 363 362 362 361 359 360 362 363 361 359 360 360 358 362 366 369 365 352 350 355 365 362 361 358 357 358 356 359 361 362 361 360 356 358 355 354 354 358 357 358 355 361 363 357 353 352 353 358 355 349 341 335 333 330 328 326 325 324 323 322
361 360 360 360 361 360 359 356 357 359 355 343 336 337 335 335 339 346 357 357 356 355 357 359 361 362 363 362 361 359 358 361 363 361 360 361 359 360 363 365 365 363 362 352 349 352 360 359 360 357 359 362 359 365 366 365 360 357 356 354 354 352 356 357 362 362 360 356 353 350 350 351 355 354 351 346 340 336 334 327 324 324 323 322 322
361 360 359 358 357 357 355 355 356 356 354 331 332 334 334 335 338 347 358 357 359 357 358 361 364 364 364 363 359 357 360 361 366 368 363 361 360 357 357 357 359 359 360 362 364 362 361 359 361 360 361 364 366 367 368 364 358 358 357 357 356 354 361 363 362 360 357 354 351 348 344 346 353 348 350 346 338 335 332 324 323 325 323 322 322
356 355 354 355 354 354 355 356 354 356 353 326 329 329 330 332 336 353 357 359 359 360 358 359 360 362 364 364 363 360 360 363 366 355 355 358 357 356 355 356 355 355 357 356 343 349 363 361 362 363 362 368 356 374 370 366 365 363 360 363 363 360 359 356 352 352 352 348 344 342 339 343 350 342 341 345 341 337 333 330 326 325 325 324 322
354 352 351 351 354 356 358 358 356 356 352 328 322 323 324 326 336 354 359 358 361 358 357 359 363 364 363 363 362 362 359 359 357 341 341 351 355 353 352 351 352 355 354 362 343 341 338 332 331 332 331 331 332 329 331 336 362 360 363 356 352 355 353 349 345 346 346 339 337 341 342 341 343 343 337 336 344 340 334 332 330 327 324 324 323
352 352 352 352 353 355 354 356 356 355 346 327 319 318 320 321 336 354 358 359 358 360 359 362 364 363 362 363 364 362 358 363 339 332 334 348 350 350 351 350 349 349 353 355 358 355 334 333 334 334 335 336 335 337 338 337 339 357 358 351 353 354 352 351 345 343 341 336 332 339 345 341 339 342 338 340 340 339 339 336 336 330 324 323 320
352 352 351 351 352 353 351 352 351 350 343 330 315 317 317 320 335 351 355 354 356 358 357 358 363 363 363 362 358 360 360 350 325 325 327 342 348 350 348 349 349 348 352 355 358 350 352 354 355 355 353 347 355 358 359 354 357 358 361 359 357 355 348 348 347 342 334 329 331 338 340 338 337 337 336 332 331 336 344 344 340 338 335 337 331
Wind_Speed
6 6 6 6 5 5 5 5 5 5 5 4 4 3 4 4 4 3 1 2 2 5 3 2 4 3 4 6 6 4 2 3 4 3 4 7 7 10 13 13 12 12 11 11 10 10 9 8 8 8 8 9 9 10 10 11 10 10 10 10 10 11 11 12 12 13 14 14 13 13 12 11 11 10 10 10 10 10 11 11 11 12 13 13 13
6 7 6 6 5 5 5 5 5 4 3 3 3 3 3 2 1 1 2 1 0 2 3 3 4 4 2 3 7 6 3 3 3 3 4 6 7 8 15 13 13 12 12 11 11 10 10 9 10 9 9 9 9 10 10 10 10 10 11 11 11 11 12 12 13 14 15 14 13 13 12 12 11 11 11 11 11 11 12 12 12 12 13 13 14
7 6 5 6 5 4 5 4 4 4 3 3 3 2 1 1 1 1 2 1 1 2 3 3 3 6 3 6 4 4 4 4 5 6 6 4 7 8 10 14 13 12 12 12 11 10 10 10 10 10 10 10 10 10 10 10 10 11 11 11 11 12 12 13 13 14 15 15 14 14 13 12 12 12 12 12 12 12 12 12 12 12 13 13 13
6 6 6 6 5 5 4 4 4 3 4 3 3 2 2 3 1 0 1 2 2 3 3 2 3 5 4 4 4 6 4 6 6 5 5 4 4 7 7 8 12 12 12 11 11 11 11 11 11 11 10 10 11 11 11 11 10 10 10 10 11 12 12 14 14 15 16 16 15 14 14 14 13 13 13 13 13 13 12 12 12 13 13 13 13
5 5 6 6 6 5 4 3 4 3 2 2 2 3 2 2 5 4 3 3 2 2 4 4 2 1 5 6 5 4 3 3 5 7 7 6 5 5 7 8 7 12 12 11 12 12 12 11 12 11 11 11 12 12 12 12 10 8 9 8 11 11 12 14 15 15 17 17 15 15 14 14 14 13 14 14 14 13 13 13 13 13 13 13 13
5 5 5 5 5 4 5 4 3 2 3 4 4 4 4 4 2 2 1 2 2 1 1 2 3 3 4 4 4 4 4 4 5 3 4 6 4 3 4 5 6 6 7 12 12 12 12 12 12 12 12 12 12 12 12 12 11 0 9 9 9 12 13 15 17 17 17 17 17 15 14 14 15 15 14 14 14 14 13 13 13 14 14 13 13
4 3 4 5 5 5 5 4 3 3 4 2 2 2 3 2 0 1 2 1 1 1 0 2 4 3 3 3 4 0 4 3 5 3 3 3 4 3 2 4 4 5 6 5 10 12 12 12 12 12 12 13 12 12 12 13 11 10 5 13 12 13 14 16 17 17 17 18 18 16 15 15 15 15 14 14 14 13 13 13 13 13 13 14 14
4 2 4 5 5 3 3 4 3 2 2 3 3 3 2 5 1 2 1 3 2 5 3 2 1 5 3 4 3 4 3 3 5 5 6 4 4 4 4 3 3 2 2 3 3 7 13 12 12 13 12 12 12 12 13 13 13 10 16 9 14 15 14 15 15 17 18 18 17 17 16 15 15 15 15 14 14 14 13 13 13 13 13 14 15
4 2 3 3 2 3 5 4 3 2 2 4 4 3 3 1 1 2 1 3 3 2 5 3 4 5 4 5 3 2 4 3 3 4 2 4 5 7 6 4 3 4 3 2 4 3 10 12 11 12 12 12 11 13 13 13 14 13 21 21 13 16 17 15 16 16 17 17 17 17 16 15 14 14 14 14 13 13 13 13 13 13 13 14 14
4 2 4 2 5 3 5 3 2 2 2 3 3 4 3 6 2 1 2 3 3 1 1 1 2 4 3 7 5 2 2 2 2 2 3 4 4 4 7 6 6 4 4 5 7 3 5 10 12 12 12 11 12 12 12 13 13 13 11 22 25 16 15 16 18 18 18 19 18 16 13 13 13 13 14 13 12 13 13 13 13 14 13 12 13
5 3 2 3 7 4 4 1 1 1 2 2 3 2 1 2 3 2 3 2 2 2 2 3 0 0 3 6 2 2 3 4 2 4 5 5 5 4 5 4 7 5 3 3 3 5 5 2 4 6 8 15 13 13 12 11 11 12 12 11 18 30 29 24 20 22 24 20 14 12 11 11 11 12 12 12 12 12 12 12 12 13 13 13 12
5 4 2 1 1 3 3 3 1 2 1 2 2 4 3 1 0 2 3 2 3 2 3 3 1 1 3 0 5 4 2 3 5 5 2 4 3 5 6 6 5 7 8 7 5 5 6 4 4 4 5 4 11 12 10 10 10 10 11 9 8 8 12 17 21 20 12 9 9 9 9 10 10 11 11 11 11 12 12 12 11 11 12 12 11
6 4 3 2 0 2 2 1 2 2 2 0 2 3 2 2 1 3 4 2 2 3 4 3 2 2 3 5 3 3 4 5 6 6 6 5 7 4 4 5 6 6 6 6 6 4 4 6 5 3 4 2 4 11 10 9 11 11 11 6 8 8 8 9 9 9 8 8 8 7 8 8 9 10 10 10 11 11 11 11 10 10 10 10 10
5 4 4 3 2 2 2 2 1 1 0 1 2 1 1 3 2 1 5 0 2 2 4 3 5 4 2 5 5 4 5 5 4 6 6 5 5 6 4 5 6 8 6 4 3 6 4 3 3 4 3 1 2 5 5 6 5 5 3 4 7 7 8 8 9 8 8 7 7 7 7 8 9 9 9 10 10 11 12 11 10 9 8 8 9
6 4 4 3 2 1 2 3 1 1 2 2 3 1 3 2 4 2 4 4 1 3 1 1 4 1 3 3 4 5 4 5 6 2 6 3 4 5 5 7 7 5 4 6 5 4 7 7 1 4 4 3 1 2 4 4 6 4 5 4 4 6 7 7 7 7 7 7 6 7 7 7 7 8 9 10 11 12 12 11 10 8 6 7 8
6 5 3 2 2 2 2 2 2 1 1 1 2 2 1 4 3 1 2 4 6 3 1 2 4 3 2 4 4 6 3 3 5 5 7 3 6 5 7 6 7 5 3 5 3 4 5 7 5 3 3 4 3 3 5 5 2 3 3 1 2 3 6 6 7 6 6 7 7 7 7 7 8 8 9 10 11 12 11 11 10 9 6 6 6
5 4 3 3 2 2 1 2 1 2 2 3 3 4 3 2 0 2 2 3 6 5 4 1 4 3 2 2 3 2 4 0 5 4 4 4 4 4 3 7 7 5 3 6 3 3 3 2 4 4 3 3 4 3 4 3 2 3 1 6 3 4 5 5 5 5 6 7 6 6 6 6 7 8 9 10 10 11 11 10 9 9 7 5 5
5 4 4 4 4 3 2 2 2 2 2 2 1 1 3 4 4 4 1 1 4 2 6 3 2 4 2 5 3 4 2 3 6 2 6 6 8 12 14 13 12 6 4 6 4 4 5 5 1 4 4 4 1 1 4 4 2 3 2 3 3 3 4 4 5 6 6 7 6 5 5 6 7 8 9 10 11 11 12 11 10 9 7 5 4
5 4 4 3 3 3 3 3 2 2 3 2 3 5 5 3 2 0 1 4 2 3 3 9 3 5 3 2 1 5 3 2 4 3 5 6 6 6 4 6 9 13 13 5 5 6 7 1 7 2 6 1 1 2 3 4 4 3 2 2 2 2 3 5 5 6 7 7 6 4 5 6 7 8 9 10 10 11 11 11 10 9 8 6 4
5 5 4 4 4 3 2 2 2 2 2 3 2 2 3 3 1 1 1 1 3 3 4 4 3 3 2 3 2 5 7 9 11 4 3 2 3 4 4 8 5 5 10 8 12 9 4 5 6 7 3 3 3 1 2 5 3 5 3 3 1 3 4 5 4 6 6 7 6 6 6 7 8 8 9 10 10 11 11 10 10 9 9 7 5
5 5 6 5 4 4 3 3 3 2 3 3 3 2 2 1 1 1 3 3 4 1 3 4 3 7 3 3 4 3 3 2 5 5 8 2 4 2 1 5 6 6 10 9 6 9 3 5 1 4 1 1 2 4 4 4 2 4 4 5 1 4 4 5 4 5 5 6 7 6 7 8 9 9 9 9 10 10 11 11 10 9 9 7 5
7 5 5 6 5 4 4 5 4 4 3 1 1 2 2 3 3 3 1 2 2 4 4 3 5 4 5 3 0 4 5 4 1 3 3 6 1 3 2 1 3 4 8 4 8 15 6 8 4 4 1 2 4 2 5 6 3 4 6 3 3 2 4 4 5 5 4 4 6 6 8 9 9 9 9 9 9 10 11 11 11 10 9 8 7
7 7 7 6 6 5 5 4 4 2 3 3 4 4 5 5 4 3 3 3 3 4 4 5 5 4 6 5 5 6 6 4 4 4 3 4 5 1 2 2 6 8 8 12 5 8 9 4 2 4 4 3 5 8 2 3 7 5 5 1 5 1 1 3 4 4 3 4 5 7 8 9 9 9 8 8 9 10 11 12 12 11 10 9 7
5 6 8 8 6 6 6 5 3 3 3 4 3 2 3 3 3 2 3 4 3 4 5 6 6 5 6 7 5 6 5 6 5 2 4 3 1 1 5 2 10 7 5 6 11 8 5 1 6 10 12 9 2 3 1 1 1 1 8 9 4 2 3 3 3 3 4 3 5 7 8 8 9 9 8 8 9 10 12 12 12 12 11 10 8
6 6 6 8 7 6 6 5 4 3 2 1 2 1 3 3 1 3 3 2 4 4 5 6 6 6 6 5 5 7 5 6 6 5 4 5 4 5 6 5 6 5 7 5 5 4 7 9 8 10 3 3 3 4 2 2 2 3 7 8 5 6 3 4 4 3 3 4 5 6 7 8 8 7 7 8 9 10 11 12 13 13 13 11 9
7 6 6 7 7 7 6 5 4 4 4 4 3 3 3 4 4 3 5 3 4 4 5 7 7 7 6 6 7 6 7 6 6 6 7 6 6 6 7 6 7 7 5 5 5 6 5 4 2 4 6 4 2 3 4 2 2 4 3 1 7 6 5 4 3 3 2 4 4 5 7 7 7 8 8 8 10 11 12 12 13 13 13 12 11
7 6 6 5 6 6 6 6 6 5 5 5 5 5 4 4 4 4 4 4 4 4 5 6 7 6 6 6 6 7 6 7 6 7 6 6 6 2 4 6 7 6 7 5 3 5 2 7 2 1 6 1 3 3 3 5 4 3 3 4 4 7 8 4 1 1 2 3 4 5 6 7 7 8 9 10 10 10 11 12 12 13 13 13 12
7 6 7 7 6 6 6 7 6 6 6 6 6 5 5 5 5 5 6 5 5 6 5 7 7 8 7 6 6 7 6 7 7 7 7 6 6 5 6 6 6 7 7 7 6 5 4 2 1 6 3 4 5 4 1 2 4 1 3 4 5 6 8 6 3 3 2 2 2 5 6 7 8 9 10 10 10 10 10 11 13 13 13 13 13
7 7 7 8 7 7 7 7 8 7 7 7 7 6 5 5 6 5 6 6 5 5 6 6 6 7 7 6 5 5 5 5 7 7 6 5 6 7 8 7 5 5 7 7 5 6 6 6 4 3 2 3 3 4 2 1 5 3 4 3 4 6 7 8 6 5 4 3 1 3 5 7 8 9 10 10 10 10 10 11 12 13 13 14 14
7 6 8 8 7 7 7 7 6 8 8 8 8 7 7 6 7 6 6 6 5 5 6 6 6 7 7 7 6 6 5 6 6 7 6 5 6 6 5 6 7 5 4 5 6 5 7 5 6 3 4 1 5 2 3 6 8 5 4 4 5 6 9 9 8 7 4 4 2 3 4 6 7 8 9 9 10 11 11 11 11 12 14 14 15
8 7 6 8 8 8 8 8 8 7 8 8 7 7 7 7 7 7 7 6 6 6 6 7 7 7 7 7 6 6 6 7 7 8 7 6 6 6 5 6 6 6 4 2 6 6 6 7 7 4 3 2 5 5 6 5 8 5 3 4 3 10 10 8 9 7 5 3 3 3 3 5 6 6 7 8 9 10 11 11 11 12 13 14 15
9 10 9 8 8 9 10 10 9 10 9 9 9 8 8 7 7 7 7 7 7 7 7 8 7 6 6 7 6 6 6 7 7 7 7 7 6 7 7 6 5 4 5 3 4 8 7 7 5 5 10 2 3 3 4 8 6 6 3 3 1 6 7 8 11 10 7 6 6 4 5 6 6 5 6 8 9 10 10 10 11 11 12 13 14
10 10 10 10 9 9 10 9 10 8 8 8 8 7 8 8 7 7 7 4 7 6 6 9 8 8 7 7 7 7 7 7 7 8 8 8 7 7 6 6 7 6 4 3 4 7 7 6 6 6 7 8 2 4 4 6 7 3 3 5 5 5 6 3 9 11 10 9 7 7 7 7 6 6 7 8 8 8 9 9 9 10 11 11 13
11 10 11 11 11 10 10 10 9 9 8 8 9 8 8 8 9 8 8 8 8 8 8 8 8 8 7 7 8 8 8 9 9 9 8 8 8 7 7 7 7 3 3 3 4 5 7 5 7 6 7 5 5 4 5 6 5 5 7 5 6 8 5 3 7 8 13 10 9 8 8 8 8 9 6 7 7 8 9 10 10 9 10 11 11
10 10 11 11 10 10 10 9 9 9 8 9 9 9 8 8 9 9 8 9 9 9 9 10 9 9 9 8 9 9 8 9 9 9 9 8 8 8 8 8 7 6 4 7 6 7 7 6 6 7 5 3 5 6 7 8 5 5 5 6 7 6 5 3 5 7 11 11 10 9 10 10 10 8 8 7 7 8 9 10 10 10 10 10 10
10 10 11 11 11 9 10 10 9 10 10 9 10 10 10 9 9 9 9 8 9 9 9 10 10 8 10 9 9 9 9 8 8 8 8 7 7 7 8 7 6 7 6 6 7 6 7 7 7 7 7 7 5 6 9 7 8 6 6 6 6 8 6 6 7 1 10 10 10 12 12 11 10 10 9 8 8 9 9 10 12 12 12 11 12
11 10 11 10 10 10 11 12 11 10 11 11 11 11 10 9 10 10 10 10 9 10 9 10 9 9 9 10 10 9 9 9 8 8 8 9 8 7 8 6 6 6 6 5 4 6 5 7 7 7 7 6 5 7 9 10 13 11 7 5 6 6 5 6 7 4 12 11 10 11 11 10 10 10 9 9 9 9 10 11 11 12 13 13 14
11 11 10 11 10 12 11 12 12 11 11 10 10 10 11 11 10 10 10 10 10 9 10 10 11 10 10 10 11 10 9 10 9 9 8 9 9 8 8 7 5 4 5 6 3 5 7 5 2 4 4 4 3 2 3 3 6 10 11 10 7 6 4 5 5 4 1 4 4 7 7 9 10 11 10 9 9 10 11 11 11 11 12 13 14
11 11 11 10 10 11 11 12 13 12 11 11 10 10 11 10 11 10 10 10 10 9 10 11 10 11 10 10 10 11 10 9 10 9 9 9 8 10 6 8 5 4 4 3 3 0 2 5 5 3 4 3 2 3 1 2 3 2 5 8 7 10 8 5 5 5 4 4 9 10 6 8 11 8 10 9 9 11 12 11 11 12 12 13 13
11 11 12 11 12 5 7 9 10 12 12 11 11 11 11 11 11 11 10 10 10 9 8 9 10 11 11 10 11 7 12 10 9 10 8 9 8 5 5 3 1 1 2 3 0 1 4 5 5 5 4 4 2 3 2 1 2 3 2 5 9 8 7 4 3 4 3 3 1 7 10 11 7 10 10 9 9 8 7 9 12 12 11 12 12
3 6 7 11 12 12 13 13 13 9 12 12 10 11 11 12 11 11 11 11 11 10 10 11 10 11 8 10 12 1 9 5 14 11 10 2 2 4 3 5 1 1 2 2 3 3 2 4 5 5 6 7 5 3 1 0 1 2 3 4 6 13 11 6 1 2 4 3 5 2 7 4 6 5 5 5 6 9 11 9 7 11 11 10 12
0 2 3 9 13 12 13 11 11 11 9 10 10 12 11 9 10 9 10 8 6 7 9 9 8 10 10 11 10 6 12 8 8 11 7 6 7 9 8 6 3 3 2 4 5 5 4 4 6 7 7 7 6 2 2 2 2 1 2 2 4 9 14 7 4 5 7 7 6 4 3 2 6 2 3 2 6 7 6 6 6 7 8 10 11
4 3 5 7 8 12 13 12 11 11 7 7 8 11 13 10 9 9 8 7 5 3 6 6 7 8 10 11 9 7 8 10 7 10 10 9 11 10 9 7 7 7 6 7 7 6 6 8 8 8 8 7 5 5 3 2 2 2 3 3 3 7 8 4 4 1 2 4 3 5 1 1 3 3 3 5 6 6 6 5 6 7 9 10 11
4 5 9 8 7 6 8 10 11 9 7 10 16 17 19 14 9 9 9 8 7 7 6 7 6 5 5 6 8 6 6 3 5 8 13 17 14 11 9 7 7 10 10 8 7 8 8 8 8 8 7 6 6 6 4 3 2 3 4 4 4 5 9 5 3 4 0 2 4 4 3 3 4 3 4 5 6 6 6 5 6 7 7 9 10
4 5 6 7 5 3 1 1 6 10 5 7 11 9 9 4 10 16 11 10 11 8 8 7 7 5 5 4 4 5 5 3 4 4 5 8 4 13 17 12 9 11 12 13 12 11 9 9 9 8 7 6 6 5 3 2 3 3 4 3 4 8 5 5 3 4 1 3 4 3 3 3 3 2 3 5 6 7 7 6 6 6 6 7 9
4 4 5 3 3 3 2 2 1 3 2 6 4 7 7 2 5 2 7 11 11 5 10 9 7 5 3 1 2 5 7 6 3 5 5 6 6 7 8 8 9 11 14 16 16 16 14 12 10 9 7 7 7 5 3 2 2 3 3 5 6 7 5 3 3 2 2 3 4 3 3 1 2 2 3 4 4 6 5 6 8 8 6 6 8
4 4 4 3 3 3 3 3 2 2 7 5 6 9 10 10 8 2 6 6 4 8 9 7 6 7 5 4 4 6 6 7 6 1 3 4 4 5 7 9 10 12 13 11 7 7 8 12 12 11 9 7 6 5 3 3 4 5 4 5 7 6 5 2 3 1 1 1 4 3 3 4 2 3 6 5 7 5 6 6 8 10 9 7 7
4 3 5 4 4 5 5 5 5 5 4 10 9 5 1 2 3 5 7 7 7 4 6 6 9 8 7 5 5 4 8 9 6 1 2 2 5 6 8 9 8 12 12 5 5 9 7 8 10 10 6 4 2 3 3 4 5 5 6 7 7 6 4 5 2 1 4 3 4 4 3 4 2 4 1 7 7 6 7 6 8 12 11 9 7
6 6 6 6 5 5 6 5 5 4 5 7 9 9 8 8 4 6 7 8 6 7 7 8 8 7 6 6 6 6 7 10 4 3 1 1 3 7 9 11 11 13 14 4 8 3 3 5 3 8 9 7 5 6 4 3 3 2 4 5 7 5 3 1 2 5 1 4 5 6 4 4 3 4 4 3 3 7 9 7 7 8 12 10 8
9 8 6 5 4 4 6 5 1 2 6 8 10 10 9 9 8 7 5 5 5 5 6 7 6 6 6 8 8 6 8 5 9 8 8 5 4 6 8 11 12 12 12 10 6 3 3 4 2 6 8 9 10 7 5 6 4 4 4 6 5 3 3 2 2 3 3 3 5 8 4 3 2 2 3 4 4 5 5 10 7 6 8 8 9
7 4 4 3 2 2 2 4 2 4 7 7 10 10 11 11 7 6 5 5 4 4 5 6 4 4 4 3 3 4 3 5 9 9 7 6 7 7 9 8 11 11 13 12 6 5 6 6 5 4 2 4 6 7 6 5 4 5 5 4 4 2 2 3 5 6 5 3 6 8 4 5 3 2 4 4 6 3 2 3 6 6 7 7 7
Wind_Direction
165 170 185 157 137 151 155 146 144 142 160 167 152 168 186 178 178 172 225 242 181 144 226 123 178 124 148 152 116 150 177 120 142 156 130 142 144 152 169 175 186 192 199 206 209 210 215 220 225 231 236 242 251 255 258 263 269 274 276 279 281 283 284 285 286 285 284 284 286 286 285 283 283 281 277 271 268 263 259 254 249 246 247 247 247
183 173 163 136 150 151 138 136 140 145 159 148 135 193 191 159 181 187 136 217 100 91 264 184 166 86 55 128 150 131 129 120 135 124 139 132 136 149 169 179 185 196 202 209 215 216 220 223 228 237 241 246 247 251 256 262 270 276 279 282 285 287 288 288 286 285 284 282 281 281 282 280 278 277 275 270 265 264 263 261 258 253 248 245 241
163 139 137 144 144 150 137 139 150 146 135 149 180 197 207 186 87 91 145 208 276 137 245 135 149 145 165 128 125 127 138 135 137 157 156 153 142 150 166 177 187 196 204 213 218 223 227 230 233 237 243 245 248 254 260 266 273 277 283 285 286 289 293 292 289 288 289 288 286 283 281 279 278 276 274 270 268 264 263 262 262 260 256 250 242
136 152 145 149 149 141 133 163 126 136 172 168 159 158 204 118 100 329 349 278 207 172 238 170 142 129 136 92 134 136 186 179 151 117 111 122 152 149 151 170 185 196 206 213 221 225 228 231 237 242 245 247 248 250 253 259 261 271 282 290 293 299 301 298 296 294 291 289 289 289 286 281 278 277 273 270 266 264 262 261 260 259 258 255 251
145 136 146 150 135 145 144 131 146 154 159 133 136 207 120 205 164 205 238 232 201 172 231 126 52 35 145 140 90 77 98 107 149 161 139 143 166 165 158 154 170 193 204 213 221 227 229 233 238 241 243 245 248 251 253 253 256 270 289 298 309 308 305 303 300 295 291 288 284 283 282 281 277 274 274 272 268 266 265 263 262 261 258 253 250
135 157 163 128 145 159 145 141 121 166 140 173 184 211 161 210 157 176 199 252 156 233 67 123 143 158 107 128 116 146 175 129 102 100 163 144 111 135 143 148 162 171 188 208 221 227 234 235 237 239 241 244 247 250 251 251 250 23 306 300 294 298 297 298 297 294 291 287 283 277 275 275 274 271 269 268 267 265 265 265 264 265 265 262 257
144 160 152 135 151 154 160 143 152 185 175 186 248 149 175 182 92 115 259 163 191 13 349 87 119 46 13 90 128 92 71 36 52 78 93 88 152 92 71 138 162 158 175 171 205 223 231 236 238 240 240 244 247 252 250 252 246 147 244 287 291 289 294 296 295 295 292 288 284 277 272 271 268 267 264 263 263 264 263 262 264 265 267 268 267
141 187 140 175 126 149 138 111 156 205 158 154 271 175 64 2 328 345 6 22 316 188 140 165 61 115 153 121 134 171 115 148 193 156 115 151 93 122 129 64 254 108 58 145 153 199 214 226 236 238 245 245 249 251 252 253 249 179 158 235 277 281 281 283 288 288 288 286 282 276 271 268 265 262 261 260 262 266 268 270 271 270 270 270 271
143 187 182 155 91 37 117 157 176 146 189 165 230 162 145 220 253 354 23 297 264 180 131 200 181 152 165 113 72 62 154 225 118 105 84 50 137 154 147 168 126 126 121 153 158 188 200 213 219 238 242 247 247 248 251 249 249 239 164 171 222 267 273 278 279 281 285 284 282 277 273 270 267 265 262 260 257 265 269 272 274 273 269 267 269
149 141 323 264 84 240 110 121 168 157 185 198 230 116 165 202 184 54 334 314 321 1 200 300 210 135 141 117 137 184 50 60 17 105 147 161 218 186 157 168 153 136 176 205 156 200 192 197 217 225 229 232 232 238 243 249 254 255 240 170 176 209 252 267 278 280 280 278 271 267 267 268 267 265 265 261 258 264 264 266 269 271 269 264 264
152 173 193 163 145 219 118 142 174 163 206 199 208 98 41 30 317 102 262 307 306 336 33 301 2 219 135 132 122 29 189 96 172 238 159 172 192 172 180 168 163 164 168 231 167 187 202 185 191 222 229 219 235 239 240 243 249 258 260 258 174 179 202 218 235 256 256 254 262 268 271 269 267 266 265 264 262 264 263 260 261 263 266 267 268
160 179 208 213 162 146 134 179 137 185 223 242 166 163 160 218 287 333 287 238 230 254 153 231 167 198 34 241 149 175 268 155 209 205 240 190 159 218 189 159 207 163 177 198 220 207 167 189 199 256 299 269 233 240 245 254 260 260 264 265 274 249 214 213 213 230 253 275 281 281 277 276 274 273 272 273 270 268 265 261 257 255 260 267 271
169 168 197 159 191 94 135 188 181 131 196 249 35 34 114 287 101 246 264 268 197 237 121 289 347 102 144 288 144 173 169 245 225 218 190 206 177 192 250 174 194 189 167 223 173 233 210 184 186 249 261 281 210 226 241 261 269 274 276 270 279 271 273 278 281 283 282 292 294 291 289 284 279 275 274 278 280 280 277 273 266 256 253 259 268
172 175 176 177 194 162 156 169 185 115 14 36 43 198 235 255 304 249 258 51 275 352 62 324 218 196 208 189 196 185 181 202 185 237 219 215 187 199 185 254 217 185 197 187 165 230 247 215 122 220 169 253 338 331 330 285 265 307 292 267 273 283 286 290 291 293 292 302 308 306 299 293 293 295 293 295 296 288 285 282 277 268 250 251 260
170 179 171 197 186 159 177 149 197 142 181 201 183 190 226 255 234 295 350 279 268 154 161 272 315 199 139 292 198 203 138 255 244 221 275 174 238 201 207 211 216 197 190 184 183 213 228 57 209 205 176 156 27 303 284 281 262 277 254 244 271 288 296 299 296 292 302 315 317 320 317 314 318 324 319 306 298 291 289 288 284 279 267 254 258
177 179 179 172 184 193 182 147 167 173 193 155 224 208 195 240 257 113 251 294 246 97 241 109 324 12 284 210 195 222 173 237 233 194 215 218 252 256 192 219 218 193 184 250 192 208 211 165 199 191 156 146 170 234 239 261 290 301 281 234 294 295 304 305 299 309 323 326 326 331 329 336 336 331 325 319 313 307 302 299 296 291 282 259 254
171 184 180 150 187 198 201 171 169 216 200 176 216 207 204 191 55 288 285 32 317 33 324 325 110 354 290 359 287 198 266 119 245 175 255 257 206 252 30 316 287 204 229 248 256 200 60 155 173 205 93 135 192 221 265 264 279 312 267 158 30 340 314 303 314 326 327 330 333 335 340 342 339 332 329 327 322 319 314 313 309 302 291 270 256
170 181 177 165 184 192 205 218 190 180 223 278 344 40 202 235 157 244 113 78 335 90 254 194 143 138 242 185 281 342 25 309 290 62 292 311 335 20 1 342 327 340 232 298 285 354 76 271 184 171 168 161 155 204 289 299 275 275 298 54 13 328 321 317 319 325 326 328 332 338 342 345 340 336 334 331 333 330 323 321 318 309 297 283 266
171 190 159 171 183 186 197 219 215 193 200 197 211 227 180 201 91 238 320 34 286 304 37 307 19 271 242 5 250 273 312 297 281 336 18 326 351 333 289 329 346 4 331 297 68 168 220 327 292 74 93 112 202 213 241 271 294 291 82 39 318 337 337 331 318 325 329 329 325 327 338 346 342 340 339 335 336 330 328 326 324 320 312 299 283
190 173 184 176 201 187 205 239 215 220 220 217 230 262 38 74 96 6 339 248 304 290 344 273 305 267 44 327 322 339 332 336 333 312 180 71 333 342 338 306 16 320 323 10 8 341 327 51 325 84 203 179 240 221 238 256 240 279 269 133 328 334 359 339 331 323 327 325 326 331 343 345 346 342 337 336 333 330 328 329 329 329 329 321 306
202 180 194 194 191 207 200 221 218 209 225 214 214 169 201 99 193 213 224 227 246 348 309 307 329 315 22 296 343 288 271 138 257 336 338 39 340 263 83 335 359 351 303 315 11 277 187 127 56 23 66 330 276 274 290 290 251 244 208 118 78 14 3 343 329 325 329 330 334 340 348 346 348 345 342 340 335 331 329 329 331 333 333 329 319
192 210 188 198 204 203 210 208 212 216 232 238 260 138 184 207 225 229 329 315 330 275 249 267 296 280 318 314 223 287 287 301 45 130 73 256 229 298 347 73 336 279 272 260 178 251 276 115 154 207 294 293 302 295 247 270 314 299 99 111 64 44 10 352 333 325 336 330 334 349 349 347 347 346 346 344 340 334 331 330 329 335 343 338 324
200 190 209 208 204 210 222 204 227 194 225 225 221 218 195 197 214 167 238 255 258 279 291 270 267 279 274 260 254 253 245 234 281 280 243 186 219 253 263 167 240 259 255 253 286 320 280 151 178 17 8 303 252 261 331 325 334 13 319 138 119 43 40 9 344 337 339 330 351 353 349 345 345 347 348 349 348 340 337 337 335 340 350 348 335
213 193 197 202 199 208 216 214 213 213 208 234 240 260 251 197 196 201 221 214 249 264 285 304 298 280 268 271 269 272 293 291 278 265 263 304 324 47 296 316 280 256 265 244 229 225 276 40 98 188 202 206 211 287 229 296 254 282 299 123 117 82 75 24 19 15 345 352 346 344 342 342 341 345 348 348 352 347 343 343 341 345 352 351 339
207 218 196 208 193 198 214 212 199 217 238 280 254 278 304 289 267 239 246 235 242 241 249 253 262 280 298 321 296 283 273 282 282 266 280 290 291 230 242 227 243 276 274 305 301 316 351 29 17 321 209 246 111 227 317 132 294 151 280 127 99 105 79 58 56 32 5 353 336 336 336 337 340 341 345 346 351 348 346 345 344 348 353 353 343
212 209 221 202 208 195 199 215 219 213 214 216 233 236 233 249 253 264 253 234 253 271 262 262 264 261 262 269 287 295 293 296 309 304 291 284 287 327 332 305 300 293 289 279 3 337 12 319 151 292 332 338 323 337 345 66 184 207 278 15 128 114 92 77 62 31 7 342 318 330 330 333 340 345 348 355 357 353 349 345 345 352 355 354 348
217 200 215 233 213 202 189 210 204 210 213 220 217 215 222 236 250 252 270 253 245 267 270 267 268 274 273 275 279 284 305 304 291 297 298 293 293 259 221 276 295 304 306 310 275 255 116 238 49 42 295 271 341 11 24 308 77 113 291 243 122 138 114 100 55 34 334 315 334 333 335 340 345 349 358 3 7 0 353 349 348 356 357 356 352
201 202 194 212 221 219 199 207 211 206 210 218 231 228 212 231 237 237 239 248 242 234 247 259 263 264 271 281 286 291 292 285 304 295 293 313 324 289 293 301 302 315 306 300 307 307 299 309 326 249 264 342 352 324 261 315 305 221 204 264 167 149 135 140 172 192 227 271 328 337 339 352 355 358 3 6 6 8 359 353 353 358 0 356 354
197 200 204 195 211 216 219 217 194 216 214 209 221 223 226 227 227 233 246 257 252 252 258 273 280 282 278 268 268 269 275 290 288 291 291 300 297 304 299 298 297 276 289 301 308 322 329 307 294 123 320 317 292 309 56 118 275 304 303 329 290 140 150 162 174 197 202 180 338 346 355 7 9 8 10 6 6 7 4 1 356 359 1 358 357
219 208 199 198 199 211 221 226 221 206 215 215 209 216 215 228 228 229 238 247 253 254 255 266 269 266 263 266 273 277 278 281 278 285 298 296 284 288 331 318 296 273 285 304 304 297 295 332 316 31 319 334 283 188 239 270 173 227 278 253 295 117 159 172 181 203 201 186 111 34 29 26 22 18 13 8 6 6 9 7 6 6 3 360 359
202 228 220 208 198 199 215 216 218 218 207 219 214 215 214 222 230 229 227 227 241 254 255 249 258 259 262 270 271 268 274 283 291 285 284 288 283 278 266 265 265 291 304 270 304 300 317 307 326 324 244 263 313 349 291 229 165 219 273 304 302 126 175 177 188 192 201 193 118 83 58 52 38 20 21 15 10 14 14 14 16 15 10 4 1
207 205 219 226 209 203 202 215 218 212 212 213 215 208 213 226 230 233 230 203 222 240 246 250 258 257 255 255 254 260 274 274 277 284 277 268 269 272 281 287 304 347 326 292 244 277 294 300 295 302 295 252 193 290 318 304 149 207 322 273 243 166 216 201 175 177 185 191 150 133 106 78 57 41 31 25 23 21 18 18 19 20 19 11 5
215 207 208 218 224 216 218 212 220 219 209 218 217 219 213 218 231 241 253 212 206 230 260 261 256 261 266 266 269 271 271 270 270 271 273 276 270 265 255 251 254 246 241 258 267 279 284 283 285 283 270 265 239 214 259 283 287 258 256 274 230 251 281 283 161 168 180 183 157 149 120 95 84 69 47 39 33 22 19 18 16 21 23 19 16
216 221 211 213 216 223 224 225 224 223 209 210 227 222 219 217 222 224 224 229 236 235 239 256 251 259 264 259 258 262 251 255 262 263 268 270 271 263 257 253 261 208 167 189 239 255 278 291 289 278 278 324 296 239 246 266 276 284 281 299 303 275 266 323 155 169 181 175 172 151 118 108 104 78 62 56 39 28 23 16 17 20 24 28 25
208 217 217 218 216 214 225 229 220 230 225 212 219 229 228 220 223 235 234 222 222 235 243 240 250 250 249 255 257 250 255 255 250 256 263 270 271 277 277 278 280 275 220 170 225 258 271 281 273 276 280 303 303 313 310 279 277 274 277 278 284 304 308 311 309 160 180 171 170 141 117 117 106 102 89 66 51 44 27 20 15 16 24 25 25
219 207 219 219 217 215 219 224 227 224 224 221 226 225 227 229 232 231 238 240 238 228 229 249 247 243 245 248 251 256 260 261 263 272 271 276 279 272 276 271 266 262 279 297 286 274 279 295 300 299 311 311 301 290 279 304 295 299 302 310 300 293 313 317 300 41 169 177 167 133 126 121 120 111 94 75 69 56 44 33 18 12 17 20 21
223 220 205 217 222 216 218 218 221 223 224 223 223 233 232 225 227 233 233 234 236 245 247 249 254 254 255 250 251 252 250 254 263 258 257 256 256 262 262 265 265 270 263 258 272 281 280 292 324 335 354 322 24 332 351 347 326 309 285 264 287 287 287 313 310 74 149 177 142 130 128 133 130 121 101 88 80 68 56 42 29 18 17 18 17
223 227 223 209 217 219 220 223 222 218 223 227 229 231 235 237 231 230 231 237 239 240 245 245 242 245 252 252 248 252 256 254 256 256 253 258 258 262 263 260 259 282 298 272 291 350 339 329 347 293 295 297 335 327 312 346 307 320 324 310 298 300 310 297 297 327 238 155 185 136 122 138 128 131 121 108 92 80 65 49 38 29 24 22 18
221 227 230 231 221 219 217 223 228 225 219 224 228 227 234 241 242 239 239 238 238 242 241 247 251 254 247 249 258 249 253 253 255 256 256 251 256 260 284 278 273 283 268 294 75 272 295 302 304 282 281 277 212 253 171 241 271 273 314 324 340 313 307 289 307 307 20 320 74 102 137 132 137 129 132 126 109 92 78 61 45 35 29 27 25
217 223 236 231 233 171 244 252 246 233 223 222 221 225 229 231 232 234 240 244 245 250 262 258 256 253 252 253 245 251 261 261 246 250 271 269 265 270 250 270 1 213 239 270 23 179 217 245 255 259 265 283 243 203 175 207 311 318 333 353 310 306 276 270 305 320 316 330 319 106 104 105 103 119 134 135 124 117 112 95 59 38 26 29 33
352 324 286 254 240 225 212 219 221 227 235 223 220 221 221 227 234 240 236 235 238 238 238 254 260 264 260 262 266 143 287 248 279 271 250 291 340 264 256 272 245 128 241 243 246 236 248 264 270 256 257 266 266 264 273 210 156 303 355 1 315 284 292 284 233 314 311 314 322 86 139 176 151 158 154 150 132 104 71 40 56 48 27 30 37
313 210 250 294 273 247 240 236 233 230 227 236 228 214 224 223 229 240 238 240 258 278 277 263 261 260 275 272 276 225 227 254 259 271 259 261 252 277 280 285 237 222 219 250 249 249 258 256 258 266 272 271 277 233 219 204 159 154 267 239 246 282 280 305 345 31 319 342 342 334 6 139 139 130 210 141 90 66 57 46 33 21 25 32 40
182 221 253 245 265 269 248 241 243 237 238 259 273 206 202 233 258 236 232 239 223 260 265 259 261 264 263 279 287 346 346 291 296 323 291 230 235 240 253 252 260 258 262 253 248 246 244 255 263 265 260 270 282 276 215 214 152 194 232 264 291 277 281 282 282 199 272 310 323 319 351 309 104 123 87 73 64 64 69 58 22 34 32 37 42
194 222 238 233 236 261 279 281 258 254 256 30 37 21 360 335 299 261 248 247 233 217 244 261 265 290 322 285 277 283 281 6 16 345 327 312 296 298 275 254 230 243 253 259 257 251 246 255 263 265 268 269 263 243 227 182 190 193 202 221 233 268 277 292 283 315 39 0 318 311 297 71 75 113 126 108 88 79 74 90 66 46 40 40 45
198 203 232 256 262 270 235 275 335 334 338 88 109 137 161 231 338 330 283 267 253 251 237 228 251 241 242 279 327 329 304 268 137 192 213 264 285 248 251 251 251 240 238 244 248 251 253 249 252 256 256 271 260 229 206 189 161 236 267 282 257 253 279 303 317 304 356 326 301 306 338 62 122 152 140 128 130 129 131 105 93 78 55 53 49
214 216 232 250 275 285 262 284 283 156 126 43 99 82 89 106 253 204 277 288 290 277 260 263 263 252 243 162 266 263 268 277 213 192 208 247 258 288 285 274 267 265 248 233 233 234 240 250 251 245 249 242 243 237 215 220 226 254 273 281 288 286 294 326 353 4 9 351 335 342 313 290 155 150 151 140 114 114 106 130 132 106 90 70 63
199 204 213 208 218 236 232 218 225 234 127 134 102 148 164 195 206 209 258 266 288 311 314 302 291 269 250 230 239 254 263 260 255 288 155 198 246 285 292 282 275 277 274 260 257 266 260 247 243 247 250 251 260 245 187 169 191 220 235 261 262 276 288 236 110 327 186 26 348 341 327 316 235 174 159 170 154 136 128 151 149 127 114 101 89
218 199 199 200 207 220 233 250 255 255 106 105 107 83 113 244 227 231 233 234 241 248 262 240 246 259 253 238 231 251 272 277 266 97 45 340 308 284 280 285 276 260 264 130 161 224 238 282 268 254 247 266 271 229 182 193 199 203 233 248 282 277 262 260 189 220 253 111 25 8 333 320 348 329 342 161 164 156 156 150 177 145 140 133 125
208 201 201 200 207 221 226 214 219 247 89 58 71 71 47 10 299 248 256 257 236 238 234 247 250 250 255 255 249 231 253 265 310 37 57 99 250 271 276 283 283 282 283 256 219 237 301 201 102 82 85 89 83 102 118 229 276 257 247 248 245 247 282 338 275 238 199 62 26 6 330 299 347 345 315 320 197 172 167 163 161 174 150 153 146
227 215 202 187 192 213 234 234 303 59 84 47 36 53 55 26 337 301 267 262 254 249 242 244 252 254 259 279 284 282 282 300 29 9 355 347 305 274 270 271 275 282 281 274 246 114 81 359 41 106 124 126 126 126 180 199 180 227 221 244 255 264 241 250 3 13 124 58 32 348 330 293 21 327 352 308 287 266 179 155 160 149 157 161 163
182 168 154 153 88 46 10 301 300 102 83 56 39 48 52 39 8 318 303 281 283 271 284 272 259 251 252 237 272 295 307 10 1 352 349 322 284 271 265 271 273 265 263 261 265 173 213 206 227 197 178 183 176 193 175 176 190 200 225 233 260 180 204 231 151 176 165 90 19 347 337 327 348 17 19 333 320 338 69 124 148 166 179 176 165